FW6463 Weather Reports


Display with metric or nautical units.
time (UTC)temp
F
wind
direction
speed
MPH
gust
MPH
rain 1hr
in
rain 24hr
in
rain mn
in
humidity
%
barometer
mb
20260504200023 76 191 6.0 10.0 0.00 0.00 0.00 48 1011.8
20260504195028 75 172 9.0 15.0 0.00 0.00 0.00 48 1012.0
20260504194032 75 210 7.0 11.0 0.00 0.00 0.00 48 1012.2
20260504193039 75 193 6.0 8.0 0.00 0.00 0.00 47 1012.4
20260504192044 74 223 8.0 10.0 0.00 0.00 0.00 48 1012.5
20260504191028 75 195 7.0 9.0 0.00 0.00 0.00 49 1012.6
20260504190015 74 210 7.0 11.0 0.00 0.00 0.00 47 1012.8
20260504185040 74 188 6.0 11.0 0.00 0.00 0.00 49 1013.1
20260504184106 74 214 8.0 11.0 0.00 0.00 0.00 49 1013.3
20260504183030 74 223 8.0 15.0 0.00 0.00 0.00 49 1013.5
20260504182016 73 194 6.0 10.0 0.00 0.00 0.00 50 1013.7
20260504181021 72 197 9.0 12.0 0.00 0.00 0.00 50 1013.9
20260504180025 73 214 8.0 12.0 0.00 0.00 0.00 49 1014.0
20260504175031 73 217 7.0 11.0 0.00 0.00 0.00 50 1014.0
20260504174017 72 182 8.0 16.0 0.00 0.00 0.00 51 1014.1
20260504173022 72 251 9.0 18.0 0.00 0.00 0.00 50 1014.2
20260504172027 71 196 4.0 7.0 0.00 0.00 0.00 52 1014.5
20260504171108 71 205 6.0 12.0 0.00 0.00 0.00 52 1014.6
20260504151016 66 206 6.0 11.0 0.00 0.00 0.00 53 1016.1
20260504141028 63 223 7.0 16.0 0.00 0.00 0.00 54 1016.2
20260504130105 60 223 6.0 11.0 0.00 0.00 0.00 50 1016.4
20260504081018 47 201 2.0 3.0 0.00 0.00 0.00 64 1017.2
20260504050020 41 185 1.0 2.0 0.00 0.17 0.00 84 1017.8
20260504045044 42 180 1.0 2.0 0.00 0.17 0.00 83 1017.9
20260504044029 42 183 1.0 2.0 0.00 0.17 0.00 83 1017.9
20260504043015 42 180 2.0 2.0 0.00 0.17 0.00 81 1017.8
20260504042020 43 182 2.0 2.0 0.00 0.17 0.00 79 1017.9
20260504041025 42 191 1.0 2.0 0.00 0.17 0.00 83 1017.8
20260504040030 42 199 1.0 2.0 0.00 0.17 0.00 84 1017.8
20260504035017 42 172 1.0 2.0 0.00 0.17 0.17 83 1017.8
20260504034022 42 179 1.0 2.0 0.00 0.17 0.17 83 1017.8
20260504033026 41 0.0 0.0 0.00 0.17 0.17 85 1017.8
20260504032031 41 0.0 0.0 0.00 0.17 0.17 86 1017.8
20260504031038 41 0.0 0.0 0.00 0.17 0.17 87 1017.8
20260504030023 41 0.0 0.0 0.00 0.17 0.17 86 1017.6
20260504025047 41 0.0 0.0 0.00 0.17 0.17 85 1017.7
20260504024032 42 0.0 0.0 0.00 0.17 0.17 86 1017.8
20260504023019 42 0.0 0.0 0.00 0.17 0.17 82 1017.8
20260504022024 43 168 2.0 2.0 0.00 0.17 0.17 82 1017.6
20260504021049 43 172 1.0 2.0 0.00 0.17 0.17 83 1017.6
20260504020015 43 0.0 0.0 0.00 0.17 0.17 80 1017.6
20260504015021 44 170 1.0 2.0 0.00 0.17 0.17 80 1017.4
20260504014047 44 0.0 0.0 0.00 0.17 0.17 77 1017.3
20260504013029 45 0.0 0.0 0.00 0.17 0.17 74 1017.4
20260504012017 46 167 0.0 2.0 0.00 0.17 0.17 74 1017.3
20260504011021 47 0.0 0.0 0.00 0.17 0.17 72 1017.2
20260504010027 48 180 0.0 2.0 0.00 0.17 0.17 68 1017.1
20260504005025 50 172 2.0 3.0 0.00 0.17 0.17 63 1017.0
20260504004017 51 181 2.0 3.0 0.00 0.17 0.17 58 1016.9
20260504003022 52 183 2.0 4.0 0.00 0.17 0.17 57 1016.9
20260504002022 53 208 2.0 4.0 0.00 0.17 0.17 55 1016.9
20260504001019 54 197 1.0 2.0 0.00 0.17 0.17 54 1016.8
20260504000018 56 259 2.0 4.0 0.00 0.17 0.17 49 1016.6
20260503235017 57 275 5.0 8.0 0.00 0.17 0.17 47 1016.6
20260503234015 57 277 5.0 9.0 0.00 0.17 0.17 47 1016.6
20260503233032 59 288 4.0 7.0 0.00 0.17 0.17 46 1016.6
20260503232020 60 269 4.0 6.0 0.00 0.17 0.17 43 1016.5
20260503231024 60 272 5.0 9.0 0.00 0.17 0.17 43 1016.4
20260503230029 61 270 6.0 12.0 0.00 0.17 0.17 42 1016.4
20260503225016 61 305 6.0 10.0 0.00 0.17 0.17 43 1016.4
20260503224102 60 243 5.0 7.0 0.00 0.17 0.17 43 1016.4
20260503223026 60 274 5.0 8.0 0.00 0.17 0.17 43 1016.4
20260503222030 61 287 6.0 9.0 0.00 0.17 0.17 43 1016.4
20260503221017 61 254 5.0 9.0 0.00 0.17 0.17 42 1016.4
20260503220021 61 301 4.0 8.0 0.00 0.17 0.17 42 1016.4
20260503215026 62 286 4.0 8.0 0.00 0.17 0.17 42 1016.4
20260503214031 64 273 6.0 9.0 0.00 0.17 0.17 40 1016.4
20260503213019 64 266 5.0 8.0 0.00 0.17 0.17 41 1016.5
20260503212043 63 275 7.0 15.0 0.00 0.17 0.17 41 1016.3
20260503211028 62 309 5.0 10.0 0.00 0.17 0.17 43 1016.4
20260503210032 63 279 5.0 9.0 0.00 0.17 0.17 42 1016.5
20260503205059 62 284 5.0 9.0 0.00 0.17 0.17 43 1016.5
20260503204024 63 252 7.0 13.0 0.00 0.17 0.17 43 1016.5
20260503203028 63 327 6.0 8.0 0.00 0.17 0.17 43 1016.5
20260503202032 63 288 8.0 13.0 0.00 0.17 0.17 41 1016.7
20260503201019 62 282 8.0 11.0 0.00 0.17 0.17 42 1016.8